When you browse on this site, cookies collect data to enhance your experience and personalize the content and advertising you see.
Visit our Privacy Policy to learn more. By continuing to use the site, you agree to this use of cookies and data.
EN

Hourly Weather Bremen

Today, 4 July, Saturday

Time Temperature Precipitation Wind Pressure Humidity
00:00 +14°C° 0 mm 4 mps 760 mmHg 90%
01:00 +13°C° 0 mm 4 mps 759 mmHg 90%
02:00 +13°C° 0 mm 5 mps 759 mmHg 88%
03:00 +13°C° 0 mm 5 mps 759 mmHg 86%
04:00 +13°C° 0 mm 6 mps 759 mmHg 85%
05:00 +13°C° 0.1 mm 6 mps 759 mmHg 85%
06:00 +13°C° 0.1 mm 6 mps 758 mmHg 86%
07:00 +14°C° 0.1 mm 6 mps 758 mmHg 86%
08:00 +14°C° 0 mm 7 mps 758 mmHg 86%
09:00 +15°C° 0 mm 7 mps 758 mmHg 87%
10:00 +15°C° 0 mm 7 mps 758 mmHg 87%
11:00 +16°C° 0 mm 7 mps 758 mmHg 86%
12:00 +16°C° 0 mm 7 mps 758 mmHg 85%
13:00 +16°C° 0 mm 7 mps 758 mmHg 84%
14:00 +16°C° 0.1 mm 7 mps 758 mmHg 85%
15:00 +16°C° 0.1 mm 7 mps 758 mmHg 87%
16:00 +16°C° 0.1 mm 7 mps 757 mmHg 88%
17:00 +17°C° 0 mm 7 mps 758 mmHg 87%
18:00 +17°C° 0 mm 7 mps 758 mmHg 86%
19:00 +17°C° 0 mm 7 mps 758 mmHg 85%
20:00 +17°C° 0 mm 7 mps 758 mmHg 84%
21:00 +17°C° 0 mm 7 mps 757 mmHg 84%
22:00 +19°C° 0 mm 6 mps 757 mmHg 84%
23:00 +19°C° 0 mm 6 mps 757 mmHg 85%

Tomorrow, 5 July, Sunday

Time Temperature Precipitation Wind Pressure Humidity
00:00 +19°C° 0 mm 6 mps 757 mmHg 87%
01:00 +19°C° 0 mm 6 mps 757 mmHg 88%
02:00 +19°C° 0.1 mm 6 mps 756 mmHg 89%
03:00 +17°C° 0.1 mm 6 mps 756 mmHg 91%
04:00 +17°C° 0.1 mm 6 mps 756 mmHg 92%
05:00 +17°C° 0 mm 6 mps 756 mmHg 91%
06:00 +17°C° 0 mm 6 mps 755 mmHg 90%
07:00 +17°C° 0 mm 7 mps 755 mmHg 89%
08:00 +18°C° 0 mm 7 mps 755 mmHg 87%
09:00 +18°C° 0 mm 7 mps 755 mmHg 86%
10:00 +18°C° 0 mm 8 mps 755 mmHg 84%
11:00 +20°C° 0 mm 8 mps 755 mmHg 82%
12:00 +19°C° 0 mm 9 mps 754 mmHg 80%
13:00 +19°C° 0 mm 9 mps 754 mmHg 79%
14:00 +19°C° 0.1 mm 9 mps 754 mmHg 80%
15:00 +19°C° 0.1 mm 9 mps 754 mmHg 81%
16:00 +20°C° 0.1 mm 8 mps 754 mmHg 82%
17:00 +18°C° 0.6 mm 8 mps 754 mmHg 84%
18:00 +18°C° 0.6 mm 8 mps 754 mmHg 85%
19:00 +18°C° 0.6 mm 7 mps 754 mmHg 87%
20:00 +17°C° 0.4 mm 6 mps 754 mmHg 89%
21:00 +16°C° 0.4 mm 5 mps 754 mmHg 91%
22:00 +16°C° 0.4 mm 3 mps 754 mmHg 92%
23:00 +14°C° 0 mm 3 mps 754 mmHg 92%

Day after tomorrow, 6 July, Monday

Time Temperature Precipitation Wind Pressure Humidity
00:00 +13°C° 0 mm 3 mps 754 mmHg 92%
01:00 +12°C° 0 mm 3 mps 754 mmHg 92%
02:00 +12°C° 0.1 mm 4 mps 754 mmHg 91%
03:00 +12°C° 0.1 mm 4 mps 754 mmHg 90%
04:00 +12°C° 0.1 mm 5 mps 754 mmHg 89%
05:00 +13°C° 0.1 mm 5 mps 754 mmHg 87%
06:00 +13°C° 0.1 mm 6 mps 754 mmHg 85%
07:00 +12°C° 0.1 mm 7 mps 755 mmHg 83%
08:00 +14°C° 0.2 mm 7 mps 755 mmHg 80%
09:00 +15°C° 0.2 mm 8 mps 755 mmHg 77%
10:00 +15°C° 0.2 mm 8 mps 755 mmHg 75%
11:00 +16°C° 0.4 mm 8 mps 755 mmHg 75%
12:00 +16°C° 0.4 mm 8 mps 756 mmHg 75%
13:00 +16°C° 0.4 mm 8 mps 756 mmHg 75%
14:00 +16°C° 0.8 mm 8 mps 757 mmHg 76%
15:00 +16°C° 0.8 mm 8 mps 757 mmHg 78%
16:00 +16°C° 0.8 mm 8 mps 758 mmHg 79%
17:00 +15°C° 0.4 mm 7 mps 758 mmHg 81%
18:00 +14°C° 0.4 mm 6 mps 759 mmHg 83%
19:00 +14°C° 0.4 mm 5 mps 759 mmHg 86%
20:00 +13°C° 0 mm 5 mps 760 mmHg 88%
21:00 +12°C° 0 mm 5 mps 760 mmHg 90%
22:00 +11°C° 0 mm 4 mps 761 mmHg 92%
23:00 +11°C° 0 mm 4 mps 761 mmHg 93%

7 July, Tuesday

Time Temperature Precipitation Wind Pressure Humidity
00:00 +10°C° 0 mm 4 mps 762 mmHg 94%
01:00 +10°C° 0 mm 4 mps 762 mmHg 95%
02:00 +9°C° 0 mm 3 mps 762 mmHg 95%
03:00 +9°C° 0 mm 3 mps 762 mmHg 95%
04:00 +9°C° 0 mm 3 mps 763 mmHg 96%
05:00 +10°C° 0 mm 3 mps 763 mmHg 92%
06:00 +11°C° 0 mm 3 mps 763 mmHg 89%
07:00 +12°C° 0 mm 3 mps 763 mmHg 85%
08:00 +13°C° 0 mm 3 mps 763 mmHg 79%
09:00 +14°C° 0 mm 4 mps 764 mmHg 73%
10:00 +15°C° 0 mm 4 mps 764 mmHg 67%
11:00 +17°C° 0.1 mm 4 mps 763 mmHg 66%
12:00 +17°C° 0.1 mm 4 mps 763 mmHg 66%
13:00 +18°C° 0.1 mm 4 mps 763 mmHg 65%
14:00 +17°C° 0.3 mm 4 mps 763 mmHg 70%
15:00 +17°C° 0.3 mm 4 mps 763 mmHg 75%
16:00 +15°C° 0.3 mm 4 mps 762 mmHg 80%
17:00 +15°C° 0.2 mm 4 mps 762 mmHg 81%
18:00 +15°C° 0.2 mm 4 mps 763 mmHg 83%
19:00 +15°C° 0.2 mm 4 mps 763 mmHg 84%
20:00 +13°C° 0 mm 3 mps 763 mmHg 87%
21:00 +12°C° 0 mm 3 mps 763 mmHg 90%
22:00 +10°C° 0 mm 3 mps 764 mmHg 93%
23:00 +10°C° 0 mm 3 mps 764 mmHg 94%

8 July, Wednesday

Time Temperature Precipitation Wind Pressure Humidity
00:00 +9°C° 0 mm 3 mps 764 mmHg 94%
01:00 +9°C° 0 mm 3 mps 764 mmHg 95%
02:00 +8°C° 0 mm 3 mps 764 mmHg 95%
03:00 +8°C° 0 mm 3 mps 764 mmHg 95%
04:00 +8°C° 0 mm 3 mps 764 mmHg 95%
05:00 +9°C° 0 mm 3 mps 764 mmHg 92%
06:00 +10°C° 0 mm 3 mps 764 mmHg 90%
07:00 +11°C° 0 mm 3 mps 764 mmHg 87%
08:00 +13°C° 0 mm 3 mps 764 mmHg 80%
09:00 +15°C° 0 mm 4 mps 764 mmHg 72%
10:00 +17°C° 0 mm 4 mps 764 mmHg 65%
11:00 +18°C° 0 mm 4 mps 764 mmHg 65%
12:00 +18°C° 0 mm 4 mps 763 mmHg 65%
13:00 +19°C° 0 mm 4 mps 763 mmHg 64%
14:00 +19°C° 0 mm 4 mps 763 mmHg 67%
15:00 +19°C° 0 mm 4 mps 762 mmHg 69%
16:00 +19°C° 0 mm 4 mps 762 mmHg 71%
17:00 +19°C° 0 mm 4 mps 762 mmHg 73%
18:00 +19°C° 0 mm 4 mps 761 mmHg 74%
19:00 +19°C° 0 mm 4 mps 761 mmHg 76%
20:00 +19°C° 0 mm 4 mps 761 mmHg 76%
21:00 +19°C° 0 mm 4 mps 760 mmHg 75%
22:00 +18°C° 0 mm 4 mps 760 mmHg 75%
23:00 +17°C° 0.1 mm 5 mps 760 mmHg 75%

9 July, Thursday

Time Temperature Precipitation Wind Pressure Humidity
00:00 +17°C° 0.1 mm 5 mps 759 mmHg 74%
01:00 +17°C° 0.1 mm 5 mps 759 mmHg 74%
02:00 +16°C° 0.2 mm 5 mps 759 mmHg 80%
03:00 +16°C° 0.2 mm 5 mps 759 mmHg 85%
04:00 +15°C° 0.2 mm 5 mps 758 mmHg 91%
05:00 +15°C° 0.5 mm 5 mps 759 mmHg 91%
06:00 +14°C° 0.5 mm 5 mps 759 mmHg 91%
07:00 +14°C° 0.5 mm 5 mps 759 mmHg 91%
08:00 +15°C° 0.1 mm 6 mps 759 mmHg 85%
09:00 +15°C° 0.1 mm 7 mps 760 mmHg 78%
10:00 +16°C° 0.1 mm 7 mps 760 mmHg 72%
11:00 +17°C° 0.1 mm 7 mps 760 mmHg 70%
12:00 +17°C° 0.1 mm 7 mps 761 mmHg 68%
13:00 +17°C° 0.1 mm 7 mps 761 mmHg 66%
14:00 +17°C° 0.1 mm 7 mps 761 mmHg 68%
15:00 +17°C° 0.1 mm 6 mps 762 mmHg 70%
16:00 +16°C° 0.1 mm 6 mps 762 mmHg 73%
17:00 +16°C° 0.1 mm 5 mps 762 mmHg 75%
18:00 +15°C° 0.1 mm 4 mps 762 mmHg 77%
19:00 +14°C° 0.1 mm 3 mps 762 mmHg 80%
20:00 +13°C° 0 mm 3 mps 763 mmHg 83%
21:00 +12°C° 0 mm 3 mps 763 mmHg 87%
22:00 +10°C° 0 mm 3 mps 763 mmHg 90%
23:00 +10°C° 0 mm 3 mps 763 mmHg 91%
Show more